STARLINK-32500, 61935

Orbit data source: Space-Track

STARLINK-32500, 61935 is a payload satellite owned by SpaceX/Seattle (US) in LEO that was launched on Mon, 11 Nov 2024 UTC via an FALCON 9 launch vehicle from the Air Force Eastern Test Range (AFETR). Payload-class satellites include a variety of spacecraft equipped with specific instruments for various scientific and technological missions. These include communications satellites like Starlink; space stations such as the ISS; scientific satellites like the Hubble; Earth observation satellites from companies like Planet Labs, Umbra, and HawkEye 360; GPS; miniature CubeSats for education and research; and military/defense satellites.

Loading next visibility...
Identifier
61935, 2024-207Z
Orbit
LEO
Country
Flag of USUS
Related business
Manufacturer
SpaceX/Seattle
Mission
Operational Commercial Communications
Bus & Motor
STARLINK V2M, Unknown motor
Mass
730 kg wet, ~700 kg dry
Launch date (UTC)
2024-11-11 (2 years ago)
Launch vehicle
FALCON 9
Launch site
Air Force Eastern Test Range (AFETR)
Object type
Payload
Rocket body
Debris
Shape & HBR
Box + 2 Pan, 17.7 m
Radar Cross Section
33.884 m², Large (>1 m²)

Expand to show TLE details & history
Last TLE update: 21 hours ago

TLE from 21 hours ago
0 STARLINK-32500
1 61935U 24207Z   26206.48176681  .00026251  00000-0  96019-3 0  9990
2 61935  43.0007 227.1918 0001939 283.7526  76.3110 15.27574903 95752
Epoch: 2026-07-25T11:33Z
TLE epoch observation values (Epoch: 2026-07-25T11:33:44.652Z)
Latitude
Longitude
110.56233°
Altitude
482.525 km
Speed
7.626 km/s
True Right ascension
15h 08m 46s
True Declination
0° 00' 00"
Sunlit
Object was in daylight at epoch
Visualization orbit readout
Latitude
Unknown
Longitude
Unknown
Altitude
Unknown
Speed
Unknown
Apparent Right ascension
Unknown
Apparent Declination
Unknown
Sunlit
N/A
Visualization observer readout
Local Sidereal Time
22:17:15
Azimuth
Unknown
Elevation
Unknown
Doppler factor
Unknown
Orbital elements
Apogee altitude
486.34 km
Perigee altitude
483.679 km
Semi-major axis
6,863.146 km
Eccentricity
0.00019
Inclination
43.0007°
RAAN
227.1918°
Arg. of periapsis
283.7526°
True anomaly
76.33259°
Mean anomaly
76.311°
Eccentric anomaly
76.32179°
Mean motion
3.81732 °/min
Orbital period
94.31 mins
BSTAR
0.00096019
Loading maneuver chart data...
Computing Atmospheric mass density...
Loading historical data...
Loading historical data...
Loading historical data...
Loading historical data...
Loading historical data...
Loading historical data...
Loading historical data...

Documentation

Showing up to 5 results
|